Time,TemperatureF,DewpointF,PressureIn,WindDirection,WindDirectionDegrees,WindSpeedMPH,WindSpeedGustMPH,Humidity,HourlyPrecipIn,Conditions,Clouds,dailyrainin,SoftwareType,DateUTC
2013-02-14 00:02:00,35.0,32.0,-100.00,NNW,335,17.0,22.0,92,0.00,,,0.00,,2013-02-14 06:02:00,
2013-02-14 00:11:00,35.0,32.0,-100.00,NNW,335,18.0,24.0,92,0.00,,,0.00,,2013-02-14 06:11:00,
2013-02-14 00:21:00,34.0,32.0,-100.00,NNW,335,16.0,23.0,93,0.00,,,0.00,,2013-02-14 06:21:00,
2013-02-14 00:31:00,34.0,32.0,-100.00,NNW,340,18.0,22.0,94,0.00,,,0.00,,2013-02-14 06:31:00,
2013-02-14 00:41:00,34.0,32.0,-100.00,NNW,345,20.0,24.0,94,0.00,,,0.00,,2013-02-14 06:41:00,
2013-02-14 00:51:00,33.0,32.0,-100.00,NNW,340,24.0,33.0,93,0.00,,,0.00,,2013-02-14 06:51:00,
2013-02-14 01:01:00,33.0,30.0,-100.00,NNW,340,22.0,27.0,93,0.00,,,0.00,,2013-02-14 07:01:00,
2013-02-14 01:11:00,32.0,30.0,-100.00,NNW,340,18.0,26.0,93,0.00,,,0.00,,2013-02-14 07:11:00,
2013-02-14 01:21:00,31.0,30.0,-100.00,NNW,335,16.0,22.0,94,0.00,,,0.00,,2013-02-14 07:21:00,
2013-02-14 01:31:00,31.0,30.0,-100.00,NNW,340,17.0,21.0,95,0.00,,,0.00,,2013-02-14 07:31:00,
2013-02-14 01:41:00,31.0,30.0,-100.00,North,350,21.0,28.0,95,0.00,,,0.00,,2013-02-14 07:41:00,
2013-02-14 01:51:00,31.0,30.0,-100.00,North,350,23.0,29.0,95,0.00,,,0.00,,2013-02-14 07:51:00,
2013-02-14 02:01:00,31.0,30.0,-100.00,NNW,340,19.0,25.0,95,0.00,,,0.00,,2013-02-14 08:01:00,
2013-02-14 02:11:00,31.0,30.0,-100.00,NNW,340,18.0,24.0,95,0.00,,,0.00,,2013-02-14 08:11:00,
2013-02-14 02:21:00,31.0,30.0,-100.00,NNW,345,26.0,32.0,95,0.00,,,0.00,,2013-02-14 08:21:00,
2013-02-14 02:32:00,31.0,28.0,-100.00,NNW,345,20.0,28.0,95,0.00,,,0.00,,2013-02-14 08:32:00,
2013-02-14 02:43:00,30.0,28.0,-100.00,NNW,345,14.0,24.0,95,0.00,,,0.00,,2013-02-14 08:43:00,
2013-02-14 02:52:00,30.0,28.0,-100.00,NNW,340,13.0,21.0,95,0.00,,,0.00,,2013-02-14 08:52:00,
2013-02-14 03:01:00,30.0,28.0,-100.00,NNW,345,10.0,15.0,95,0.00,,,0.00,,2013-02-14 09:01:00,
2013-02-14 03:11:00,30.0,28.0,-100.00,NNW,330,9.0,12.0,96,0.00,,,0.00,,2013-02-14 09:11:00,
2013-02-14 03:21:00,29.0,28.0,-100.00,NNW,335,11.0,15.0,96,0.00,,,0.00,,2013-02-14 09:21:00,
2013-02-14 03:31:00,29.0,28.0,-100.00,NNW,330,9.0,14.0,96,0.00,,,0.00,,2013-02-14 09:31:00,
2013-02-14 03:41:00,29.0,28.0,-100.00,NNW,345,12.0,16.0,96,0.00,,,0.00,,2013-02-14 09:41:00,
2013-02-14 03:51:00,28.0,27.0,-100.00,NNW,335,11.0,15.0,96,0.00,,,0.00,,2013-02-14 09:51:00,
2013-02-14 04:02:00,28.0,27.0,-100.00,NNW,335,11.0,14.0,96,0.00,,,0.00,,2013-02-14 10:02:00,
2013-02-14 04:11:00,28.0,27.0,-100.00,NW,320,9.0,12.0,97,0.00,,,0.00,,2013-02-14 10:11:00,
2013-02-14 04:21:00,27.0,27.0,-100.00,NW,315,7.0,12.0,97,0.00,,,0.00,,2013-02-14 10:21:00,
2013-02-14 04:31:00,27.0,27.0,-100.00,WNW,300,7.0,9.0,97,0.00,,,0.00,,2013-02-14 10:31:00,
2013-02-14 04:42:00,27.0,27.0,-100.00,NW,310,9.0,11.0,98,0.00,,,0.00,,2013-02-14 10:42:00,
2013-02-14 05:01:00,26.0,25.0,-100.00,NW,310,7.0,12.0,98,0.00,,,0.00,,2013-02-14 11:01:00,
2013-02-14 05:11:00,25.0,25.0,-100.00,NW,320,6.0,9.0,99,0.00,,,0.00,,2013-02-14 11:11:00,
2013-02-14 05:21:00,25.0,25.0,-100.00,NNW,340,3.0,6.0,99,0.00,,,0.00,,2013-02-14 11:21:00,
2013-02-14 05:32:00,25.0,25.0,-100.00,NNW,345,4.0,9.0,99,0.00,,,0.00,,2013-02-14 11:32:00,
2013-02-14 05:42:00,25.0,25.0,-100.00,WNW,290,3.0,6.0,99,0.00,,,0.00,,2013-02-14 11:42:00,
2013-02-14 05:52:00,25.0,25.0,-100.00,NNW,340,9.0,12.0,99,0.00,,,0.00,,2013-02-14 11:52:00,
2013-02-14 06:02:00,25.0,25.0,-100.00,North,350,10.0,14.0,99,0.00,,,0.00,,2013-02-14 12:02:00,
2013-02-14 06:11:00,26.0,25.0,-100.00,NNW,345,9.0,12.0,99,0.00,,,0.00,,2013-02-14 12:11:00,
2013-02-14 06:22:00,26.0,25.0,-100.00,NNW,335,9.0,12.0,99,0.00,,,0.00,,2013-02-14 12:22:00,
2013-02-14 06:32:00,26.0,25.0,-100.00,North,350,7.0,11.0,99,0.00,,,0.00,,2013-02-14 12:32:00,
2013-02-14 06:42:00,26.0,25.0,-100.00,NW,320,3.0,7.0,99,0.00,,,0.00,,2013-02-14 12:42:00,
2013-02-14 06:53:00,26.0,25.0,-100.00,WNW,300,4.0,6.0,99,0.00,,,0.00,,2013-02-14 12:53:00,
2013-02-14 07:01:00,26.0,25.0,-100.00,NW,305,7.0,9.0,99,0.00,,,0.00,,2013-02-14 13:01:00,
2013-02-14 07:11:00,26.0,25.0,-100.00,NW,320,7.0,9.0,99,0.00,,,0.00,,2013-02-14 13:11:00,
2013-02-14 08:21:00,27.0,27.0,-100.00,West,260,5.0,6.0,99,0.00,,,0.00,,2013-02-14 14:21:00,
2013-02-14 08:31:00,27.0,27.0,-100.00,WSW,250,4.0,6.0,99,0.00,,,0.00,,2013-02-14 14:31:00,
2013-02-14 08:41:00,27.0,27.0,-100.00,West,265,7.0,8.0,99,0.00,,,0.00,,2013-02-14 14:41:00,
2013-02-14 08:52:00,27.0,27.0,-100.00,West,270,7.0,9.0,99,0.00,,,0.00,,2013-02-14 14:52:00,
2013-02-14 09:21:00,29.0,28.0,-100.00,West,280,12.0,15.0,99,0.00,,,0.00,,2013-02-14 15:21:00,
2013-02-14 09:41:00,30.0,28.0,-100.00,NW,315,15.0,18.0,97,0.00,,,0.00,,2013-02-14 15:41:00,
2013-02-14 09:51:00,30.0,28.0,-100.00,NW,315,15.0,19.0,91,0.00,,,0.00,,2013-02-14 15:51:00,
2013-02-14 10:01:00,31.0,27.0,-100.00,NW,325,16.0,19.0,87,0.00,,,0.00,,2013-02-14 16:01:00,
2013-02-14 10:11:00,31.0,27.0,-100.00,NNW,330,16.0,19.0,85,0.00,,,0.00,,2013-02-14 16:11:00,
2013-02-14 10:21:00,31.0,27.0,-100.00,NW,320,19.0,22.0,83,0.00,,,0.00,,2013-02-14 16:21:00,
2013-02-14 10:32:00,32.0,27.0,-100.00,NW,325,19.0,24.0,81,0.00,,,0.00,,2013-02-14 16:32:00,
2013-02-14 10:41:00,32.0,27.0,-100.00,NNW,330,21.0,27.0,80,0.00,,,0.00,,2013-02-14 16:41:00,
2013-02-14 10:51:00,32.0,27.0,-100.00,NW,325,20.0,27.0,80,0.00,,,0.00,,2013-02-14 16:51:00,
2013-02-14 11:01:00,33.0,27.0,-100.00,NW,325,21.0,27.0,79,0.00,,,0.00,,2013-02-14 17:01:00,
2013-02-14 11:11:00,32.0,27.0,-100.00,NW,320,24.0,30.0,79,0.00,,,0.00,,2013-02-14 17:11:00,
2013-02-14 11:21:00,32.0,28.0,-100.00,NNW,335,21.0,31.0,84,0.00,,,0.00,,2013-02-14 17:21:00,
2013-02-14 11:31:00,32.0,28.0,-100.00,NNW,335,21.0,32.0,89,0.00,,,0.00,,2013-02-14 17:31:00,
2013-02-14 11:41:00,31.0,28.0,-100.00,NNW,335,24.0,28.0,92,0.00,,,0.00,,2013-02-14 17:41:00,
2013-02-14 11:52:00,31.0,30.0,-100.00,NNW,345,20.0,27.0,95,0.00,,,0.00,,2013-02-14 17:52:00,
2013-02-14 12:01:00,31.0,30.0,-100.00,NNW,340,20.0,26.0,95,0.00,,,0.00,,2013-02-14 18:01:00,
2013-02-14 12:11:00,31.0,30.0,-100.00,North,350,21.0,27.0,95,0.00,,,0.00,,2013-02-14 18:11:00,
2013-02-14 12:22:00,29.0,28.0,-100.00,NE,35,19.0,29.0,94,0.00,,,0.00,,2013-02-14 18:22:00,
2013-02-14 12:32:00,29.0,27.0,-100.00,NNE,30,17.0,24.0,93,0.00,,,0.00,,2013-02-14 18:32:00,
2013-02-14 12:41:00,29.0,27.0,-100.00,NNE,30,17.0,21.0,92,0.00,,,0.00,,2013-02-14 18:41:00,
2013-02-14 12:51:00,29.0,27.0,-100.00,NNE,25,16.0,19.0,91,0.00,,,0.00,,2013-02-14 18:51:00,
2013-02-14 13:02:00,29.0,27.0,-100.00,NNE,20,14.0,21.0,90,0.00,,,0.00,,2013-02-14 19:02:00,
2013-02-14 13:11:00,29.0,27.0,-100.00,NNE,20,15.0,19.0,90,0.00,,,0.00,,2013-02-14 19:11:00,
2013-02-14 13:21:00,28.0,25.0,-100.00,NNE,15,18.0,23.0,88,0.00,,,0.00,,2013-02-14 19:21:00,
2013-02-14 13:31:00,28.0,25.0,-100.00,NNE,20,19.0,23.0,87,0.00,,,0.00,,2013-02-14 19:31:00,
2013-02-14 13:41:00,28.0,25.0,-100.00,NNE,20,16.0,21.0,87,0.00,,,0.00,,2013-02-14 19:41:00,
2013-02-14 13:51:00,28.0,25.0,-100.00,NNE,15,20.0,24.0,87,0.00,,,0.00,,2013-02-14 19:51:00,
2013-02-14 14:01:00,28.0,25.0,-100.00,NNE,15,17.0,22.0,87,0.00,,,0.00,,2013-02-14 20:01:00,
2013-02-14 14:11:00,28.0,25.0,-100.00,North,0,16.0,19.0,86,0.00,,,0.00,,2013-02-14 20:11:00,
2013-02-14 14:21:00,28.0,25.0,-100.00,NNE,15,15.0,21.0,83,0.00,,,0.00,,2013-02-14 20:21:00,
2013-02-14 14:31:00,28.0,23.0,-100.00,NNE,20,19.0,23.0,81,0.00,,,0.00,,2013-02-14 20:31:00,
2013-02-14 14:41:00,28.0,23.0,-100.00,NNE,15,16.0,24.0,80,0.00,,,0.00,,2013-02-14 20:41:00,
2013-02-14 14:52:00,28.0,23.0,-100.00,North,0,17.0,22.0,81,0.00,,,0.00,,2013-02-14 20:52:00,
2013-02-14 15:02:00,28.0,23.0,-100.00,North,5,20.0,24.0,80,0.00,,,0.00,,2013-02-14 21:02:00,
2013-02-14 15:11:00,28.0,21.0,-100.00,North,0,21.0,24.0,78,0.00,,,0.00,,2013-02-14 21:11:00,
2013-02-14 15:21:00,27.0,21.0,-100.00,North,0,15.0,22.0,77,0.00,,,0.00,,2013-02-14 21:21:00,
2013-02-14 15:31:00,26.0,19.0,-100.00,North,5,20.0,24.0,75,0.00,,,0.00,,2013-02-14 21:31:00,
2013-02-14 15:41:00,26.0,19.0,-100.00,North,5,19.0,23.0,74,0.00,,,0.00,,2013-02-14 21:41:00,
2013-02-14 15:51:00,26.0,18.0,-100.00,North,0,20.0,24.0,71,0.00,,,0.00,,2013-02-14 21:51:00,
2013-02-14 16:02:00,25.0,16.0,-100.00,North,5,21.0,25.0,69,0.00,,,0.00,,2013-02-14 22:02:00,
2013-02-14 16:11:00,25.0,16.0,-100.00,North,10,19.0,26.0,68,0.00,,,0.00,,2013-02-14 22:11:00,
2013-02-14 16:21:00,25.0,16.0,-100.00,North,0,20.0,24.0,68,0.00,,,0.00,,2013-02-14 22:21:00,
2013-02-14 16:31:00,24.0,16.0,-100.00,North,0,20.0,26.0,67,0.00,,,0.00,,2013-02-14 22:31:00,
2013-02-14 16:41:00,24.0,14.0,-100.00,North,0,20.0,24.0,67,0.00,,,0.00,,2013-02-14 22:41:00,
2013-02-14 16:51:00,23.0,14.0,-100.00,North,0,22.0,25.0,68,0.00,,,0.00,,2013-02-14 22:51:00,
2013-02-14 17:01:00,23.0,14.0,-100.00,North,0,20.0,26.0,67,0.00,,,0.00,,2013-02-14 23:01:00,
2013-02-14 17:11:00,23.0,14.0,-100.00,North,0,18.0,26.0,69,0.00,,,0.00,,2013-02-14 23:11:00,
2013-02-14 17:21:00,22.0,12.0,-100.00,North,0,22.0,30.0,66,0.00,,,0.00,,2013-02-14 23:21:00,
2013-02-14 17:31:00,22.0,14.0,-100.00,North,355,21.0,28.0,68,0.00,,,0.00,,2013-02-14 23:31:00,
2013-02-14 17:41:00,21.0,12.0,-100.00,North,0,21.0,29.0,67,0.00,,,0.00,,2013-02-14 23:41:00,
2013-02-14 17:52:00,20.0,10.0,-100.00,North,0,22.0,26.0,66,0.00,,,0.00,,2013-02-14 23:52:00,
2013-02-14 18:01:00,20.0,10.0,-100.00,North,0,19.0,25.0,68,0.00,,,0.00,,2013-02-15 00:01:00,
2013-02-14 18:11:00,20.0,10.0,-100.00,North,0,22.0,27.0,67,0.00,,,0.00,,2013-02-15 00:11:00,
2013-02-14 18:21:00,19.0,10.0,-100.00,North,0,22.0,30.0,66,0.00,,,0.00,,2013-02-15 00:21:00,
2013-02-14 18:31:00,19.0,10.0,-100.00,North,0,21.0,30.0,65,0.00,,,0.00,,2013-02-15 00:31:00,
2013-02-14 18:41:00,19.0,9.0,-100.00,North,0,21.0,26.0,63,0.00,,,0.00,,2013-02-15 00:41:00,
2013-02-14 18:51:00,19.0,9.0,-100.00,North,0,21.0,26.0,62,0.00,,,0.00,,2013-02-15 00:51:00,
2013-02-14 19:02:00,19.0,7.0,-100.00,North,0,23.0,30.0,59,0.00,,,0.00,,2013-02-15 01:02:00,
2013-02-14 19:11:00,19.0,7.0,-100.00,North,0,18.0,29.0,59,0.00,,,0.00,,2013-02-15 01:11:00,
2013-02-14 19:21:00,18.0,7.0,-100.00,North,0,22.0,29.0,61,0.00,,,0.00,,2013-02-15 01:21:00,
2013-02-14 19:31:00,18.0,7.0,-100.00,North,0,20.0,27.0,62,0.00,,,0.00,,2013-02-15 01:31:00,
2013-02-14 19:41:00,17.0,7.0,-100.00,North,355,19.0,26.0,62,0.00,,,0.00,,2013-02-15 01:41:00,
2013-02-14 19:51:00,17.0,7.0,-100.00,North,355,20.0,24.0,62,0.00,,,0.00,,2013-02-15 01:51:00,
2013-02-14 20:01:00,17.0,7.0,-100.00,NNW,345,17.0,24.0,65,0.00,,,0.00,,2013-02-15 02:01:00,
2013-02-14 20:11:00,16.0,7.0,-100.00,NNW,345,19.0,23.0,69,0.00,,,0.00,,2013-02-15 02:11:00,
2013-02-14 20:21:00,15.0,7.0,-100.00,North,350,19.0,24.0,71,0.00,,,0.00,,2013-02-15 02:21:00,
2013-02-14 20:31:00,15.0,7.0,-100.00,North,0,19.0,22.0,71,0.00,,,0.00,,2013-02-15 02:31:00,
2013-02-14 20:41:00,15.0,7.0,-100.00,NNW,345,19.0,26.0,71,0.00,,,0.00,,2013-02-15 02:41:00,
2013-02-14 20:52:00,14.0,7.0,-100.00,North,355,21.0,24.0,72,0.00,,,0.00,,2013-02-15 02:52:00,
2013-02-14 21:02:00,14.0,7.0,-100.00,North,350,20.0,23.0,74,0.00,,,0.00,,2013-02-15 03:02:00,
2013-02-14 21:11:00,14.0,7.0,-100.00,North,355,17.0,24.0,74,0.00,,,0.00,,2013-02-15 03:11:00,
2013-02-14 21:21:00,14.0,7.0,-100.00,North,350,18.0,22.0,76,0.00,,,0.00,,2013-02-15 03:21:00,
2013-02-14 21:32:00,13.0,9.0,-100.00,North,350,18.0,23.0,77,0.00,,,0.00,,2013-02-15 03:32:00,
2013-02-14 21:42:00,13.0,9.0,-100.00,North,350,17.0,22.0,78,0.00,,,0.00,,2013-02-15 03:42:00,
2013-02-14 21:51:00,13.0,9.0,-100.00,NNW,345,17.0,22.0,79,0.00,,,0.00,,2013-02-15 03:51:00,
2013-02-14 22:01:00,13.0,9.0,-100.00,North,350,16.0,21.0,80,0.00,,,0.00,,2013-02-15 04:01:00,
2013-02-14 22:11:00,13.0,9.0,-100.00,North,350,15.0,21.0,81,0.00,,,0.00,,2013-02-15 04:11:00,
2013-02-14 22:21:00,12.0,7.0,-100.00,North,350,16.0,19.0,81,0.00,,,0.00,,2013-02-15 04:21:00,
2013-02-14 22:31:00,12.0,9.0,-100.00,NNW,345,14.0,21.0,82,0.00,,,0.00,,2013-02-15 04:31:00,
2013-02-14 22:42:00,12.0,7.0,-100.00,NNW,340,17.0,19.0,83,0.00,,,0.00,,2013-02-15 04:42:00,
2013-02-14 22:51:00,11.0,7.0,-100.00,NNW,345,12.0,19.0,83,0.00,,,0.00,,2013-02-15 04:51:00,
2013-02-14 23:02:00,11.0,7.0,-100.00,NNW,340,10.0,17.0,84,0.00,,,0.00,,2013-02-15 05:02:00,
2013-02-14 23:11:00,11.0,7.0,-100.00,NNW,335,8.0,15.0,84,0.00,,,0.00,,2013-02-15 05:11:00,
2013-02-14 23:22:00,11.0,7.0,-100.00,NW,310,5.0,12.0,85,0.00,,,0.00,,2013-02-15 05:22:00,
2013-02-14 23:32:00,11.0,7.0,-100.00,NW,310,6.0,9.0,85,0.00,,,0.00,,2013-02-15 05:32:00,
2013-02-14 23:41:00,11.0,7.0,-100.00,NW,325,9.0,10.0,85,0.00,,,0.00,,2013-02-15 05:41:00,
2013-02-14 23:52:00,11.0,7.0,-100.00,NNW,335,7.0,12.0,85,0.00,,,0.00,,2013-02-15 05:52:00,